Regional Weather Roundup
Issued by NWS Albany, NY

Home | Current Version | Previous Version | Text Only | Print | Product List | Glossary On
Versions: 1 2 3 4 5 6 7 8 9 10 11 12 13 14 15 16 17 18 19 20 21 22 23 24 25 26 27 28 29 30 31 32 33 34 35 36 37 38 39 40 41 42 43 44 45 46 47 48 49 50
192
ASUS41 KALY 181810
RWRALY

NEW YORK STATE HOURLY WEATHER ROUNDUP
NATIONAL WEATHER SERVICE ALBANY NY
100 PM EST SAT NOV 18 2017

NOTE: "FAIR" INDICATES FEW OR NO CLOUDS BELOW 12,000 FEET WITH NO
SIGNIFICANT WEATHER AND/OR NO OBSTRUCTIONS TO VISIBILITY.

NYZ032-033-038>043-046>054-057>066-NYZ062>081-082-084-181900-
EAST


CITY           SKY/WX    TMP DP  RH WIND       PRES   REMARKS
ALBANY         CLOUDY    41  22  46 S15       29.70F
GLENS FALLS    CLOUDY    34  23  64 SW5       29.71F WCI  30
POUGHKEEPSIE   LGT RAIN  43  29  57 S10G20    29.74F
NEWBURGH       LGT RAIN  43  36  75 SW5       29.74F
MONTGOMERY     LGT RAIN  38  32  79 N5        29.73F WCI  34
WHITE PLAINS   MOSUNNY   47  33  58 S14       29.76F
ISLIP          CLOUDY    53  40  61 S16G22    29.79F
NEW YORK CITY  CLOUDY    50  34  54 S14G22    29.77F
CENTRAL PARK   PTSUNNY   49  33  54 S8        29.79F
$$

NYZ005>009-017-018-044>046-055-056-181900-
CENTRAL


CITY           SKY/WX    TMP DP  RH WIND       PRES   REMARKS
FULTON         CLOUDY    42  30  62 SE6       29.53F
SYRACUSE       CLOUDY    45  29  53 S13       29.54F
ROME           CLOUDY    37  24  59 SE12      29.61F WCI  29
ELMIRA         CLOUDY    45  38  76 SW8       29.56F
BINGHAMTON     LGT RAIN  38  32  79 S13       29.57F WCI  30
MONTICELLO     LGT SNOW  34  32  92 S6        29.70F FOG     WCI  29
$$

NYZ026>034-041>043-087-181900-
NORTH


CITY           SKY/WX    TMP DP  RH WIND       PRES   REMARKS
WATERTOWN      CLOUDY    44  29  55 S9        29.52F
FORT DRUM      NOT AVBL
OGDENSBURG     CLOUDY    34  28  76 NE7       29.54F WCI  28
MASSENA        CLOUDY    35  27  72 E7        29.60F WCI  29
SARANAC LAKE   CLOUDY    35  25  66 CALM      29.55F
PLATTSBURGH    CLOUDY    35  19  52 S5        29.65F WCI  31
$$

NYZ001>004-010>016-019>021-085-181900-
WEST


CITY           SKY/WX    TMP DP  RH WIND       PRES   REMARKS
NIAGARA FALLS  CLOUDY    49  44  83 S15       29.45F HAZE
BUFFALO        CLOUDY    47  43  86 SW13      29.46F
DUNKIRK        CLOUDY    47  43  86 S15G26    29.47F
JAMESTOWN      LGT RAIN  43  42  97 S13       29.47F
WELLSVILLE     CLOUDY    44  38  79 S14G24    29.52S
ROCHESTER      CLOUDY    49  41  74 SW10      29.49F
PENN YAN       CLOUDY    45  33  63 S12       29.53F
$$

             KEY
       WCI = WIND CHILL INDEX
       VSB = VISIBILITY
       HX  = HEAT INDEX
$$




USA.gov is the U.S. government's official web portal to all federal, state and local government web resources and services.